Weather History for Evanston, WY

Change the Weather History Date:

Saturday, February 16, 2013

  Actual Average Record
Temperature  
Mean Temperature 27 °F 23 °F  
Max Temperature 40 °F 31 °F 42 °F (2014)
Min Temperature 14 °F 15 °F -3 °F (2006)
Degree Days  
Heating Degree Days 38 42  
Month to date heating degree days 683 688  
Since 1 July heating degree days 5038 5517  
Cooling Degree Days 0 0  
Month to date cooling degree days 0 0  
Year to date cooling degree days 0 0  
Moisture  
Dew Point 14 °F    
Average Humidity 63    
Maximum Humidity 88    
Minimum Humidity 37    
Precipitation  
Precipitation 0.00 in 0.02 in 0.44 in (2001)
Month to date precipitation 0.29 0.33  
Year to date precipitation 0.40 0.87  
Sea Level Pressure  
Sea Level Pressure 30.32 in    
Wind  
Wind Speed 11 mph (SW)    
Max Wind Speed 18 mph    
Max Gust Speed 22 mph    
Visibility 10 miles    
Events      
T = Trace of Precipitation, MM = Missing Value Source: NWS Daily Summary

Daily Weather History Graph

Daily Weather History Graph

Search for Another Location

Airport:

Trip Planner

Search our weather history database for the weather conditions in past years. The results will help you decide how hot, cold, wet, or windy it might be!

Date:

Astronomy

Feb. 16, 2013 Rise Set
Actual Time 7:17 AM MST 5:59 PM MST
Civil Twilight 6:48 AM MST 6:28 PM MST
Nautical Twilight 6:16 AM MST 7:00 PM MST
Astronomical Twilight 5:44 AM MST 7:32 PM MST
Moon 10:27 AM MST (2/16) 12:07 AM MST (2/16)
Length of Visible Light 11h 39m
Length of Day
10h 42m
Waxing Crescent, 40% of the Moon is Illuminated
Feb 16
Waxing Crescent
Feb 17
First Quarter
Feb 25
Full
Mar 4
Last Quarter
Mar 11
New

Hourly Weather History & Observations

Time (MST) Temp. Windchill Dew Point Humidity Pressure Visibility Wind Dir Wind Speed Gust Speed Precip Events Conditions
12:53 AM 19.0 °F 9.0 °F 15.1 °F 85% 30.49 in 10.0 mi SW 8.1 mph - N/A   Clear
1:53 AM 18.0 °F 6.9 °F 14.0 °F 84% 30.48 in 10.0 mi SW 9.2 mph - N/A   Clear
2:53 AM 19.0 °F 4.5 °F 15.1 °F 85% 30.46 in 10.0 mi WSW 16.1 mph - N/A   Clear
3:53 AM 17.1 °F 2.0 °F 12.9 °F 84% 30.46 in 10.0 mi SW 16.1 mph - N/A   Clear
4:53 AM 17.1 °F 5.0 °F 12.9 °F 84% 30.46 in 10.0 mi SW 10.4 mph - N/A   Clear
5:53 AM 14.0 °F 1.2 °F 10.9 °F 88% 30.48 in 10.0 mi WSW 10.4 mph - N/A   Clear
6:53 AM 16.0 °F 5.3 °F 12.9 °F 88% 30.47 in 10.0 mi SSW 8.1 mph - N/A   Clear
7:53 AM 17.1 °F 5.8 °F 12.9 °F 84% 30.46 in 10.0 mi SSW 9.2 mph - N/A   Clear
8:53 AM 19.9 °F 9.3 °F 15.1 °F 81% 30.45 in 10.0 mi South 9.2 mph - N/A   Clear
9:53 AM 24.1 °F 14.4 °F 16.0 °F 71% 30.44 in 10.0 mi SSW 9.2 mph - N/A   Clear
10:53 AM 28.9 °F 19.2 °F 17.1 °F 61% 30.40 in 10.0 mi SW 11.5 mph - N/A   Clear
11:53 AM 33.1 °F 23.9 °F 19.0 °F 56% 30.35 in 10.0 mi WSW 12.7 mph - N/A   Clear
12:53 PM 37.0 °F 31.0 °F 16.0 °F 42% 30.31 in 10.0 mi SW 8.1 mph - N/A   Clear
1:53 PM 37.9 °F 30.5 °F 17.1 °F 43% 30.28 in 10.0 mi SW 11.5 mph - N/A   Clear
2:53 PM 39.0 °F 30.3 °F 17.1 °F 41% 30.24 in 10.0 mi WSW 16.1 mph - N/A   Clear
3:53 PM 39.0 °F 32.3 °F 15.1 °F 38% 30.23 in 10.0 mi WSW 10.4 mph - N/A   Clear
4:53 PM 37.9 °F 30.9 °F 15.1 °F 39% 30.20 in 10.0 mi WSW 10.4 mph - N/A   Clear
5:53 PM 35.1 °F 28.6 °F 12.9 °F 40% 30.21 in 10.0 mi WSW 8.1 mph - N/A   Clear
6:53 PM 30.0 °F 22.4 °F 12.0 °F 47% 30.22 in 10.0 mi WSW 8.1 mph - N/A   Clear
7:53 PM 28.9 °F 22.8 °F 12.0 °F 49% 30.19 in 10.0 mi SSW 5.8 mph - N/A   Clear
8:53 PM 27.0 °F 18.0 °F 12.0 °F 53% 30.16 in 10.0 mi SSW 9.2 mph - N/A   Clear
9:53 PM 27.0 °F 16.1 °F 10.9 °F 51% 30.12 in 10.0 mi SW 12.7 mph - N/A   Clear
10:53 PM 24.1 °F 12.5 °F 10.0 °F 55% 30.09 in 10.0 mi SW 12.7 mph - N/A   Clear
11:53 PM 24.1 °F 12.5 °F 9.0 °F 53% 30.03 in 10.0 mi WSW 12.7 mph - N/A   Clear